Location: Peebles
(55.6412°N, 3.1714°W)
Time: 14:48:46
(UTC+01:00)

Cosmos 1354 Rocket - Pass Details

Date: 26 September 2021
Orbit: 765 x 782 km, 74.0° (Epoch: 17 October)

Event Time Altitude Azimuth Distance (km) Brightness Sun altitude
Rises 20:31:38 0° 213° (SSW) 3,231 7.4 -13.5°
Reaches altitude 10° 20:34:01 10° 215° (SW) 2,306 6.7 -13.8°
Maximum altitude 20:39:15 72° 300° (WNW) 808 4.3 -14.5°
Drops below altitude 10° 20:44:30 10° 26° (NNE) 2,316 6.4 -15.2°
Sets 20:46:54 0° 28° (NNE) 3,246 7.2 -15.5°
